• In Romania
  • List of Countries
  • For 7 days
  • Water Temperature
  • Satellite Maps
  • Weather Map
  • Weather Widgets
  • user-avatar
    Login

    Hourly Weather Birao

    Today, 22 February, Thursday

    Time Temperature Precipitation Wind Pressure Humidity
    00:00 +29°C° 0 mm 1 mps 714 mmHg 17%
    01:00 +29°C° 0 mm 1 mps 714 mmHg 18%
    02:00 +28°C° 0 mm 1 mps 713 mmHg 18%
    03:00 +27°C° 0 mm 1 mps 713 mmHg 18%
    04:00 +27°C° 0 mm 1 mps 713 mmHg 19%
    05:00 +27°C° 0 mm 1 mps 713 mmHg 19%
    06:00 +28°C° 0 mm 1 mps 714 mmHg 18%
    07:00 +29°C° 0 mm 1 mps 714 mmHg 17%
    08:00 +31°C° 0 mm 1 mps 714 mmHg 15%
    09:00 +35°C° 0 mm 2 mps 715 mmHg 13%
    10:00 +38°C° 0 mm 2 mps 715 mmHg 11%
    11:00 +42°C° 0 mm 2 mps 715 mmHg 9%
    12:00 +43°C° 0 mm 2 mps 715 mmHg 9%
    13:00 +45°C° 0 mm 2 mps 714 mmHg 8%
    14:00 +46°C° 0 mm 1 mps 713 mmHg 7%
    15:00 +45°C° 0 mm 1 mps 713 mmHg 7%
    16:00 +45°C° 0 mm 1 mps 712 mmHg 8%
    17:00 +44°C° 0 mm 1 mps 712 mmHg 8%
    18:00 +41°C° 0 mm 1 mps 712 mmHg 9%
    19:00 +37°C° 0 mm 1 mps 712 mmHg 11%
    20:00 +34°C° 0 mm 1 mps 712 mmHg 13%
    21:00 +33°C° 0 mm 1 mps 712 mmHg 13%
    22:00 +32°C° 0 mm 1 mps 712 mmHg 14%
    23:00 +31°C° 0 mm 1 mps 713 mmHg 15%

    Tomorrow, 23 February, Friday

    Time Temperature Precipitation Wind Pressure Humidity
    00:00 +31°C° 0 mm 1 mps 713 mmHg 15%
    01:00 +30°C° 0 mm 1 mps 713 mmHg 16%
    02:00 +29°C° 0 mm 1 mps 713 mmHg 16%
    03:00 +29°C° 0 mm 1 mps 713 mmHg 17%
    04:00 +28°C° 0 mm 1 mps 713 mmHg 18%
    05:00 +28°C° 0 mm 1 mps 712 mmHg 19%
    06:00 +28°C° 0 mm 1 mps 713 mmHg 18%
    07:00 +29°C° 0 mm 1 mps 713 mmHg 18%
    08:00 +30°C° 0 mm 1 mps 714 mmHg 17%
    09:00 +34°C° 0 mm 1 mps 714 mmHg 14%
    10:00 +39°C° 0 mm 1 mps 714 mmHg 11%
    11:00 +43°C° 0 mm 2 mps 715 mmHg 8%
    12:00 +45°C° 0 mm 2 mps 714 mmHg 7%
    13:00 +46°C° 0 mm 2 mps 713 mmHg 7%
    14:00 +47°C° 0 mm 2 mps 713 mmHg 7%
    15:00 +46°C° 0 mm 2 mps 712 mmHg 7%
    16:00 +45°C° 0 mm 1 mps 712 mmHg 7%
    17:00 +44°C° 0 mm 1 mps 711 mmHg 7%
    18:00 +42°C° 0 mm 1 mps 711 mmHg 8%
    19:00 +39°C° 0 mm 1 mps 712 mmHg 9%
    20:00 +36°C° 0 mm 2 mps 712 mmHg 11%
    21:00 +35°C° 0 mm 2 mps 712 mmHg 12%
    22:00 +34°C° 0 mm 2 mps 712 mmHg 12%
    23:00 +32°C° 0 mm 2 mps 713 mmHg 13%

    Day after tomorrow, 24 February, Saturday

    Time Temperature Precipitation Wind Pressure Humidity
    00:00 +31°C° 0 mm 1 mps 712 mmHg 14%
    01:00 +31°C° 0 mm 1 mps 712 mmHg 14%
    02:00 +30°C° 0 mm 1 mps 712 mmHg 15%
    03:00 +30°C° 0 mm 1 mps 712 mmHg 15%
    04:00 +29°C° 0 mm 1 mps 712 mmHg 16%
    05:00 +28°C° 0 mm 1 mps 712 mmHg 16%
    06:00 +29°C° 0 mm 1 mps 713 mmHg 16%
    07:00 +30°C° 0 mm 1 mps 714 mmHg 15%
    08:00 +30°C° 0 mm 1 mps 714 mmHg 15%
    09:00 +35°C° 0 mm 2 mps 715 mmHg 12%
    10:00 +39°C° 0 mm 3 mps 715 mmHg 10%
    11:00 +44°C° 0 mm 3 mps 716 mmHg 7%
    12:00 +45°C° 0 mm 3 mps 715 mmHg 7%
    13:00 +46°C° 0 mm 3 mps 714 mmHg 6%
    14:00 +47°C° 0 mm 3 mps 713 mmHg 6%
    15:00 +47°C° 0 mm 3 mps 713 mmHg 6%
    16:00 +46°C° 0 mm 3 mps 712 mmHg 6%
    17:00 +46°C° 0 mm 3 mps 711 mmHg 6%
    18:00 +42°C° 0 mm 2 mps 712 mmHg 7%
    19:00 +39°C° 0 mm 2 mps 712 mmHg 8%
    20:00 +36°C° 0 mm 2 mps 712 mmHg 10%
    21:00 +35°C° 0 mm 2 mps 712 mmHg 10%
    22:00 +34°C° 0 mm 2 mps 712 mmHg 11%
    23:00 +32°C° 0 mm 2 mps 713 mmHg 12%

    25 February, Sunday

    Time Temperature Precipitation Wind Pressure Humidity
    00:00 +31°C° 0 mm 2 mps 713 mmHg 12%
    01:00 +31°C° 0 mm 2 mps 713 mmHg 13%
    02:00 +30°C° 0 mm 2 mps 713 mmHg 14%
    03:00 +29°C° 0 mm 1 mps 713 mmHg 17%
    04:00 +28°C° 0 mm 1 mps 713 mmHg 19%
    05:00 +27°C° 0 mm 1 mps 713 mmHg 21%
    06:00 +28°C° 0 mm 2 mps 714 mmHg 26%
    07:00 +29°C° 0 mm 2 mps 715 mmHg 30%
    08:00 +29°C° 0 mm 3 mps 716 mmHg 34%
    09:00 +33°C° 0 mm 3 mps 716 mmHg 34%
    10:00 +35°C° 0 mm 3 mps 717 mmHg 34%
    11:00 +37°C° 0 mm 3 mps 717 mmHg 34%
    12:00 +39°C° 0 mm 3 mps 716 mmHg 28%
    13:00 +42°C° 0 mm 3 mps 716 mmHg 22%
    14:00 +43°C° 0 mm 2 mps 715 mmHg 16%
    15:00 +42°C° 0 mm 2 mps 714 mmHg 14%
    16:00 +42°C° 0 mm 2 mps 714 mmHg 13%
    17:00 +42°C° 0 mm 2 mps 713 mmHg 12%
    18:00 +40°C° 0 mm 2 mps 714 mmHg 13%
    19:00 +37°C° 0 mm 2 mps 714 mmHg 14%
    20:00 +34°C° 0 mm 1 mps 714 mmHg 15%
    21:00 +33°C° 0 mm 1 mps 714 mmHg 15%
    22:00 +32°C° 0 mm 1 mps 714 mmHg 15%
    23:00 +31°C° 0 mm 1 mps 714 mmHg 15%

    26 February, Monday

    Time Temperature Precipitation Wind Pressure Humidity
    00:00 +30°C° 0 mm 1 mps 714 mmHg 15%
    01:00 +30°C° 0 mm 1 mps 713 mmHg 15%
    02:00 +29°C° 0 mm 1 mps 713 mmHg 15%
    03:00 +29°C° 0 mm 1 mps 713 mmHg 17%
    04:00 +28°C° 0 mm 1 mps 713 mmHg 20%
    05:00 +27°C° 0 mm 1 mps 713 mmHg 22%
    06:00 +28°C° 0 mm 1 mps 714 mmHg 23%
    07:00 +29°C° 0 mm 1 mps 715 mmHg 24%
    08:00 +29°C° 0 mm 2 mps 716 mmHg 26%
    09:00 +32°C° 0 mm 2 mps 716 mmHg 24%
    10:00 +36°C° 0 mm 2 mps 717 mmHg 23%
    11:00 +39°C° 0 mm 3 mps 717 mmHg 21%
    12:00 +41°C° 0 mm 2 mps 716 mmHg 18%
    13:00 +43°C° 0 mm 2 mps 715 mmHg 15%
    14:00 +46°C° 0 mm 2 mps 715 mmHg 12%
    15:00 +44°C° 0 mm 1 mps 714 mmHg 12%
    16:00 +43°C° 0 mm 1 mps 714 mmHg 11%
    17:00 +43°C° 0 mm 1 mps 713 mmHg 11%
    18:00 +40°C° 0 mm 1 mps 713 mmHg 14%
    19:00 +37°C° 0 mm 1 mps 713 mmHg 16%
    20:00 +34°C° 0 mm 1 mps 714 mmHg 19%
    21:00 +34°C° 0 mm 1 mps 714 mmHg 21%
    22:00 +33°C° 0 mm 1 mps 714 mmHg 23%
    23:00 +30°C° 0 mm 0 mps 714 mmHg 25%

    27 February, Tuesday

    Time Temperature Precipitation Wind Pressure Humidity
    00:00 +31°C° 0 mm 1 mps 714 mmHg 28%
    01:00 +31°C° 0 mm 1 mps 714 mmHg 30%
    02:00 +30°C° 0 mm 1 mps 714 mmHg 33%
    03:00 +30°C° 0 mm 2 mps 714 mmHg 37%
    04:00 +29°C° 0 mm 2 mps 714 mmHg 40%
    05:00 +29°C° 0 mm 2 mps 714 mmHg 44%
    06:00 +29°C° 0 mm 3 mps 715 mmHg 46%
    07:00 +30°C° 0 mm 3 mps 716 mmHg 48%
    08:00 +30°C° 0 mm 3 mps 716 mmHg 50%
    09:00 +33°C° 0 mm 4 mps 716 mmHg 45%
    10:00 +36°C° 0 mm 4 mps 717 mmHg 39%
    11:00 +38°C° 0 mm 4 mps 717 mmHg 34%
    12:00 +40°C° 0 mm 4 mps 716 mmHg 29%
    13:00 +42°C° 0 mm 3 mps 715 mmHg 24%
    14:00 +43°C° 0 mm 3 mps 714 mmHg 20%
    15:00 +43°C° 0 mm 3 mps 714 mmHg 19%
    16:00 +41°C° 0 mm 2 mps 714 mmHg 19%
    17:00 +41°C° 0 mm 2 mps 714 mmHg 18%
    18:00 +39°C° 0 mm 1 mps 714 mmHg 21%
    19:00 +36°C° 0 mm 1 mps 714 mmHg 23%
    20:00 +35°C° 0 mm 1 mps 714 mmHg 25%
    21:00 +35°C° 0 mm 2 mps 714 mmHg 30%
    22:00 +34°C° 0 mm 3 mps 715 mmHg 35%
    23:00 +33°C° 0 mm 3 mps 715 mmHg 39%
    Show more